Temp
-12 -13 -13 -13 -13 -13 -13 -13 -13 -14 -14 -14 -13 -12 -12 -12 -13 -13 -13 -13 -13 -13 -13 -13 -13 -13 -13 -13 -13 -13 -14 -14 -14 -14 -14 -14 -14 -14
-13 -13 -13 -13 -13 -13 -13 -13 -13 -13 -13 -14 -13 -12 -12 -12 -12 -12 -12 -12 -13 -13 -13 -13 -13 -13 -13 -13 -13 -13 -13 -13 -13 -14 -14 -14 -14 -14
-13 -13 -13 -13 -13 -13 -13 -13 -13 -13 -13 -13 -13 -13 -13 -13 -12 -12 -12 -12 -13 -13 -13 -13 -13 -13 -13 -13 -13 -13 -13 -13 -13 -13 -13 -14 -14 -14
-13 -13 -13 -13 -13 -13 -13 -13 -13 -13 -13 -14 -13 -13 -13 -13 -13 -13 -12 -13 -13 -13 -13 -13 -13 -14 -14 -13 -13 -13 -13 -13 -13 -13 -13 -13 -13 -14
-14 -14 -14 -14 -14 -14 -14 -14 -13 -13 -13 -14 -14 -14 -14 -14 -14 -14 -14 -14 -13 -13 -14 -14 -14 -14 -14 -14 -14 -13 -13 -13 -13 -13 -14 -14 -14 -14
-14 -14 -14 -14 -14 -15 -15 -15 -15 -15 -15 -15 -15 -15 -15 -15 -15 -15 -15 -15 -15 -14 -14 -14 -14 -15 -14 -14 -14 -14 -14 -14 -14 -14 -14 -14 -14 -14
-14 -14 -15 -15 -15 -15 -15 -15 -15 -15 -15 -15 -15 -16 -16 -16 -15 -15 -16 -16 -16 -16 -16 -15 -15 -15 -14 -14 -14 -14 -15 -14 -14 -14 -14 -14 -14 -14
-16 -16 -16 -16 -16 -17 -17 -17 -17 -17 -17 -16 -16 -16 -16 -16 -16 -16 -15 -16 -16 -16 -16 -15 -15 -15 -15 -14 -14 -14 -14 -15 -15 -14 -14 -14 -15 -14
-17 -17 -17 -17 -17 -17 -17 -18 -18 -18 -18 -17 -17 -17 -17 -17 -17 -17 -16 -16 -16 -16 -16 -16 -16 -16 -15 -15 -15 -15 -15 -15 -15 -15 -15 -14 -14 -14
-18 -18 -19 -19 -19 -19 -19 -19 -19 -19 -19 -18 -18 -18 -18 -18 -18 -17 -17 -17 -17 -17 -17 -17 -17 -17 -17 -16 -16 -16 -15 -15 -15 -15 -15 -15 -14 -14
-20 -20 -20 -20 -20 -20 -20 -20 -20 -20 -20 -19 -19 -19 -19 -19 -19 -18 -19 -18 -18 -18 -18 -17 -18 -18 -18 -17 -17 -16 -16 -16 -16 -15 -15 -15 -15 -15
-21 -21 -21 -21 -21 -21 -21 -21 -21 -21 -21 -20 -20 -20 -20 -20 -20 -20 -19 -20 -19 -19 -19 -19 -19 -19 -18 -18 -18 -17 -17 -17 -16 -16 -16 -15 -15 -15
-22 -22 -22 -22 -22 -22 -22 -22 -22 -22 -22 -22 -22 -21 -21 -21 -21 -21 -20 -20 -20 -20 -20 -20 -20 -20 -19 -19 -19 -19 -18 -18 -17 -17 -16 -16 -16 -16
-22 -22 -23 -23 -24 -24 -24 -24 -23 -23 -23 -23 -22 -22 -23 -23 -22 -21 -21 -21 -21 -21 -21 -21 -21 -21 -20 -20 -20 -20 -19 -18 -18 -18 -17 -17 -17 -17
-23 -23 -23 -24 -24 -25 -25 -25 -25 -24 -24 -24 -24 -23 -23 -23 -23 -23 -22 -22 -21 -21 -22 -21 -21 -21 -21 -20 -20 -20 -19 -19 -19 -18 -18 -18 -18 -18
-25 -25 -25 -25 -26 -26 -26 -27 -27 -26 -26 -25 -25 -24 -24 -23 -24 -24 -23 -23 -22 -22 -22 -22 -22 -21 -21 -21 -20 -20 -20 -20 -20 -19 -19 -20 -19 -19
-27 -26 -26 -27 -26 -26 -27 -27 -27 -27 -27 -26 -26 -25 -25 -24 -24 -24 -24 -23 -23 -23 -24 -23 -23 -23 -22 -22 -22 -22 -21 -21 -21 -21 -21 -20 -20 -20
-27 -27 -27 -27 -27 -27 -27 -27 -27 -27 -27 -27 -26 -26 -25 -25 -24 -24 -24 -24 -24 -24 -24 -24 -24 -24 -23 -23 -23 -23 -22 -22 -22 -21 -21 -21 -21 -21
-28 -28 -29 -28 -28 -29 -29 -28 -28 -28 -28 -28 -27 -27 -27 -26 -25 -25 -25 -25 -25 -25 -25 -25 -25 -24 -24 -24 -24 -23 -23 -23 -23 -22 -22 -22 -22 -22
-29 -29 -29 -30 -30 -30 -29 -29 -30 -29 -29 -29 -29 -28 -28 -28 -28 -28 -27 -27 -27 -27 -27 -27 -26 -26 -26 -25 -25 -25 -24 -24 -23 -23 -23 -23 -23 -23
-31 -30 -31 -31 -30 -30 -30 -30 -30 -30 -30 -30 -30 -30 -30 -30 -29 -29 -29 -29 -29 -29 -29 -29 -28 -28 -28 -27 -26 -26 -25 -25 -25 -24 -24 -23 -23 -23
-31 -31 -32 -32 -32 -32 -31 -31 -31 -31 -31 -31 -31 -31 -31 -31 -30 -30 -30 -30 -31 -31 -30 -30 -30 -29 -28 -28 -27 -27 -26 -26 -25 -25 -24 -24 -24 -24
-33 -33 -32 -32 -32 -32 -32 -32 -32 -32 -32 -32 -32 -32 -31 -31 -31 -31 -31 -31 -31 -31 -31 -31 -30 -29 -29 -28 -28 -27 -27 -26 -26 -25 -25 -24 -24 -25
Height
5671 5670 5669 5668 5667 5665 5664 5663 5663 5664 5663 5660 5658 5658 5658 5659 5659 5660 5660 5660 5659 5658 5658 5657 5657 5656 5656 5656 5656 5656 5655 5655 5655 5656 5657 5659 5661 5662
5662 5661 5660 5659 5657 5656 5655 5654 5653 5653 5654 5650 5648 5647 5646 5646 5647 5648 5649 5649 5649 5648 5647 5647 5647 5647 5648 5648 5648 5649 5648 5648 5648 5648 5649 5650 5651 5653
5653 5651 5649 5648 5647 5645 5644 5642 5641 5640 5641 5639 5638 5637 5636 5635 5633 5633 5634 5635 5636 5636 5636 5635 5635 5635 5636 5637 5638 5639 5639 5639 5640 5640 5640 5641 5642 5643
5641 5639 5637 5636 5634 5632 5631 5630 5629 5628 5627 5625 5623 5623 5623 5623 5623 5622 5621 5620 5620 5621 5623 5623 5622 5622 5623 5624 5625 5626 5627 5628 5629 5630 5631 5632 5633 5634
5628 5626 5624 5622 5620 5618 5616 5615 5613 5612 5612 5610 5608 5607 5606 5607 5608 5608 5608 5608 5608 5607 5608 5608 5609 5609 5609 5609 5610 5612 5613 5614 5617 5618 5619 5621 5622 5623
5614 5612 5609 5607 5605 5603 5601 5599 5598 5596 5595 5595 5593 5592 5590 5590 5591 5591 5592 5592 5592 5593 5591 5591 5593 5593 5594 5595 5597 5597 5598 5599 5601 5603 5604 5606 5607 5609
5599 5596 5593 5590 5588 5586 5584 5582 5581 5580 5578 5578 5577 5575 5574 5574 5574 5574 5574 5575 5574 5575 5575 5576 5576 5577 5578 5580 5581 5582 5583 5584 5585 5587 5589 5590 5592 5594
5581 5578 5576 5573 5571 5569 5568 5567 5566 5563 5561 5562 5561 5558 5556 5556 5556 5557 5557 5557 5558 5558 5558 5559 5560 5560 5561 5563 5565 5567 5568 5569 5570 5571 5573 5575 5576 5578
5562 5559 5555 5553 5551 5551 5549 5548 5546 5545 5543 5542 5544 5542 5541 5540 5541 5540 5540 5540 5540 5541 5543 5542 5543 5544 5545 5547 5549 5550 5551 5553 5554 5555 5557 5558 5559 5561
5541 5537 5534 5532 5530 5529 5529 5527 5525 5524 5522 5523 5524 5523 5523 5521 5522 5523 5523 5524 5524 5523 5526 5528 5526 5526 5527 5530 5531 5532 5533 5535 5536 5538 5540 5542 5542 5543
5520 5517 5514 5511 5508 5507 5509 5507 5505 5503 5500 5501 5502 5503 5502 5501 5501 5502 5503 5505 5506 5506 5505 5509 5507 5508 5508 5511 5513 5513 5514 5515 5517 5519 5520 5523 5524 5525
5498 5496 5494 5491 5488 5485 5484 5483 5483 5480 5480 5480 5480 5480 5481 5481 5481 5481 5481 5484 5485 5488 5487 5489 5489 5489 5490 5490 5492 5492 5494 5496 5498 5500 5501 5503 5505 5505
5479 5475 5472 5468 5466 5463 5459 5460 5459 5457 5457 5458 5459 5459 5459 5460 5459 5458 5460 5463 5464 5466 5466 5466 5470 5469 5470 5472 5471 5470 5472 5474 5477 5479 5481 5483 5484 5485
5454 5450 5448 5445 5442 5439 5436 5434 5433 5431 5432 5433 5434 5436 5435 5436 5436 5437 5440 5443 5443 5445 5444 5446 5449 5449 5450 5452 5454 5451 5452 5453 5457 5458 5459 5461 5462 5464
5426 5424 5422 5420 5415 5413 5410 5409 5407 5407 5407 5407 5408 5410 5410 5410 5410 5412 5416 5418 5421 5424 5424 5424 5427 5428 5430 5431 5433 5432 5434 5434 5435 5437 5438 5439 5441 5442
5398 5396 5395 5393 5391 5388 5387 5385 5382 5381 5380 5380 5380 5382 5383 5385 5387 5386 5390 5392 5394 5399 5400 5401 5404 5405 5408 5409 5411 5412 5412 5416 5415 5416 5417 5418 5420 5421
5367 5367 5366 5363 5361 5360 5358 5358 5356 5353 5352 5352 5351 5353 5356 5357 5361 5361 5363 5365 5370 5373 5375 5377 5379 5383 5385 5388 5390 5390 5393 5395 5397 5398 5398 5399 5400 5402
5341 5340 5339 5337 5334 5334 5332 5330 5328 5327 5326 5324 5323 5324 5327 5329 5334 5335 5336 5340 5345 5349 5352 5354 5357 5361 5365 5368 5369 5371 5374 5377 5378 5380 5381 5381 5381 5384
5317 5317 5314 5313 5310 5308 5306 5305 5304 5302 5298 5299 5298 5299 5301 5304 5306 5308 5310 5314 5320 5324 5328 5332 5336 5340 5345 5348 5351 5352 5355 5358 5360 5361 5363 5364 5365 5366
5297 5295 5294 5291 5288 5285 5284 5283 5281 5280 5278 5277 5277 5278 5279 5281 5283 5286 5289 5293 5297 5302 5307 5312 5316 5320 5323 5329 5332 5335 5336 5340 5341 5343 5345 5348 5350 5351
5280 5277 5274 5273 5271 5268 5266 5264 5262 5261 5259 5259 5259 5260 5263 5264 5268 5270 5273 5277 5281 5286 5291 5296 5300 5305 5309 5312 5316 5317 5319 5323 5325 5327 5330 5333 5335 5337
5263 5260 5258 5257 5254 5252 5251 5249 5248 5247 5245 5245 5246 5247 5249 5252 5255 5258 5261 5265 5270 5275 5279 5283 5288 5292 5295 5298 5300 5303 5305 5308 5310 5312 5316 5318 5322 5325
5249 5245 5243 5243 5241 5240 5238 5237 5236 5235 5235 5235 5236 5238 5239 5242 5245 5248 5253 5258 5263 5268 5271 5274 5277 5280 5283 5286 5288 5290 5292 5294 5297 5299 5302 5305 5309 5313
Wind_Speed
30 32 33 34 34 35 36 38 39 40 43 46 46 45 43 40 39 38 37 37 36 36 36 35 33 32 32 31 30 29 31 34 34 33 33 32 31 30
35 37 38 39 39 39 38 38 39 39 38 44 45 45 45 45 43 42 41 40 40 39 38 36 36 37 37 36 34 32 30 31 33 35 34 33 32 31
41 40 41 41 43 45 44 44 44 43 42 42 43 44 46 47 49 49 47 46 43 42 44 42 43 44 42 43 41 39 37 35 33 32 32 34 34 33
48 49 50 50 51 51 51 52 52 51 51 49 50 50 48 48 50 51 53 51 51 49 47 47 47 47 45 46 47 46 46 43 40 38 36 34 34 35
49 51 52 53 54 56 57 58 59 59 58 57 55 57 57 56 54 53 52 53 55 56 56 55 52 51 52 50 50 48 49 48 48 47 45 43 42 41
52 53 54 55 56 56 56 56 57 57 57 56 55 55 57 59 59 58 56 57 59 62 60 58 56 53 51 51 49 52 53 52 52 51 52 52 51 50
58 60 60 58 57 57 57 57 57 58 58 58 57 57 57 57 55 54 53 53 55 53 52 53 54 54 54 53 52 52 51 52 54 55 55 53 56 57
61 64 66 65 64 61 60 59 58 57 56 54 53 54 54 55 55 56 58 58 55 54 54 55 54 55 53 52 53 53 54 56 56 56 56 56 54 55
66 68 70 71 70 69 66 64 62 62 62 60 58 59 58 57 56 55 56 55 56 56 53 51 50 50 50 53 54 55 55 56 57 58 58 57 56 57
70 70 70 69 70 70 70 69 69 67 67 66 66 64 64 63 62 61 58 57 57 58 56 55 55 57 61 61 61 62 63 64 64 64 63 62 61 62
72 71 71 69 68 69 69 69 68 68 68 66 65 63 62 62 64 63 64 62 58 59 60 58 58 57 57 58 60 61 61 62 63 63 62 61 62 64
73 74 73 73 72 72 72 71 68 67 68 67 67 67 65 63 64 64 65 66 66 67 68 68 67 68 68 69 67 66 64 63 62 62 62 62 64 65
73 73 74 75 74 75 75 74 73 72 71 68 66 66 66 66 65 65 65 64 64 63 64 65 64 65 64 63 62 63 64 64 65 66 66 67 66 66
76 76 76 76 76 75 75 75 75 75 75 73 72 70 69 67 67 68 68 65 63 62 62 62 61 61 61 61 61 62 63 65 65 64 64 65 65 64
78 79 79 79 79 79 78 78 78 78 76 76 75 75 73 73 73 72 70 69 69 67 66 66 64 64 64 64 64 63 63 63 64 62 60 61 62 63
82 82 82 82 81 80 80 78 78 79 79 79 79 79 78 77 75 75 75 73 72 68 68 68 67 66 64 63 62 61 61 58 58 60 59 60 59 58
82 81 81 82 83 83 82 81 80 81 83 83 84 83 81 80 77 76 75 74 71 66 64 64 64 62 61 59 58 58 57 56 56 55 56 56 56 53
76 75 74 74 74 73 73 73 74 74 74 76 78 79 78 78 76 76 75 73 71 67 63 63 62 60 58 58 57 56 56 56 54 53 52 51 52 51
65 63 64 64 64 64 65 65 65 66 68 67 68 68 67 66 68 68 66 65 63 63 63 63 62 61 60 59 58 57 55 53 51 49 49 48 49 50
57 56 54 53 54 56 56 56 57 58 59 57 58 57 56 55 55 55 56 56 56 57 58 59 59 59 58 56 54 52 53 49 48 46 45 45 47 48
52 51 51 48 47 46 46 47 47 46 45 45 46 46 44 44 44 44 44 43 43 43 44 47 49 50 49 47 46 46 47 44 44 43 43 45 46 44
45 45 43 42 42 42 40 40 38 36 35 34 33 34 33 33 32 32 30 30 29 32 34 38 40 40 40 39 40 41 43 41 41 42 42 43 42 40
40 39 37 34 32 32 31 30 29 28 28 27 26 25 25 24 25 25 25 24 22 26 32 35 34 35 36 35 37 38 39 39 39 40 41 40 38 37
Wind_Direction
273 273 272 271 270 267 265 263 263 263 265 268 268 268 268 267 265 265 265 266 267 267 267 269 266 262 260 263 265 267 264 257 257 259 261 262 260 259
276 276 275 274 273 273 273 273 271 269 265 264 267 268 269 269 267 266 266 267 268 266 264 265 265 263 261 259 260 262 266 266 261 257 258 259 259 259
274 273 272 271 272 272 271 270 269 269 268 266 266 267 268 269 269 271 271 271 269 266 264 263 268 268 265 261 260 261 262 261 261 261 257 257 259 261
278 276 274 273 271 270 269 269 269 270 270 269 269 268 267 266 267 268 269 269 270 269 265 262 262 266 266 263 259 258 260 262 261 257 254 255 258 258
279 277 276 276 275 273 272 271 270 270 270 270 270 269 269 269 268 267 267 266 265 268 268 267 264 265 263 262 258 258 258 260 262 260 257 255 255 255
278 276 276 275 274 273 274 273 272 271 271 271 272 272 271 271 271 270 269 267 266 269 266 266 264 262 261 262 260 257 255 258 260 261 261 260 258 258
276 278 278 276 274 273 272 271 272 272 272 271 272 272 273 272 271 270 268 268 269 266 265 263 263 262 263 261 260 260 258 257 256 258 258 261 259 258
274 273 275 275 275 274 273 273 272 272 272 271 271 271 271 271 270 269 267 267 268 270 265 265 264 262 261 263 262 261 260 260 260 259 261 260 259 259
275 275 274 273 273 274 273 273 273 273 273 273 272 273 273 274 273 271 268 267 264 265 265 262 260 261 262 263 265 266 265 264 264 263 261 261 262 262
276 276 276 277 276 276 275 275 275 275 274 274 273 274 274 272 271 271 269 267 266 265 264 261 262 265 268 266 265 266 265 266 265 264 264 262 262 264
278 277 277 277 276 275 275 275 275 276 275 274 273 271 270 269 269 267 264 263 262 263 263 262 263 265 266 266 266 267 268 268 268 266 264 264 264 266
279 279 280 280 279 279 279 278 276 274 274 274 274 272 271 269 268 267 267 266 266 263 263 263 266 268 271 271 269 269 269 269 269 268 267 268 268 268
279 279 279 278 278 278 278 277 277 278 277 276 273 272 271 271 271 270 269 268 267 266 265 265 266 266 267 268 271 271 271 272 272 271 270 269 269 269
275 275 275 276 277 277 277 276 276 276 275 275 275 274 273 272 269 268 269 270 269 269 269 269 268 268 268 269 271 273 275 275 274 275 274 273 272 270
275 275 274 274 273 275 276 277 276 275 274 273 273 272 271 271 272 271 270 268 267 268 268 269 269 270 270 272 272 273 274 275 275 274 272 270 268 267
278 277 276 275 274 273 273 274 274 274 274 274 273 270 269 269 269 269 269 269 268 266 265 266 267 268 269 269 270 269 269 268 268 269 268 267 266 266
280 278 277 276 276 275 276 276 276 275 275 274 273 272 270 269 268 268 268 267 267 265 263 262 262 263 263 263 262 263 264 265 265 266 267 268 268 266
281 281 280 279 278 277 276 274 273 273 272 271 271 272 272 271 270 269 267 265 264 263 260 259 259 259 260 261 263 264 265 265 266 266 266 265 265 264
281 281 280 280 279 277 276 275 274 273 273 271 270 270 269 267 265 262 260 258 255 253 252 254 256 257 258 259 261 264 264 264 264 263 263 262 260 259
282 282 281 279 278 278 278 277 274 272 272 272 271 269 267 264 260 259 257 256 255 253 252 251 252 253 255 257 260 261 261 260 259 259 259 257 254 255
281 281 282 283 282 280 278 277 277 276 274 272 270 268 266 264 262 260 259 257 255 251 249 250 252 254 257 257 256 255 257 254 256 255 254 252 250 252
284 282 283 283 282 281 280 279 277 275 273 272 270 266 262 258 254 252 248 243 239 240 243 246 249 252 252 251 250 249 251 253 253 253 250 250 251 247
289 287 286 285 283 281 281 279 278 276 273 267 262 257 255 249 240 232 229 227 224 232 240 247 248 248 248 248 248 249 252 254 253 253 251 249 249 240